User: anonymous   Login
Location: Easthampton
(42.2676°N, 72.6690°W)
Time: 02:19:37
(UTC+00:00)
Language:

AO-73 - Orbit

View from above orbital plane
View from above orbital plane
View from above satellite
View from above satellite

Ground track
Ground track

The orbit data is extracted from the following two-line orbital elements,

1 39444U 13066AE  24111.45629652  .00016346  00000-0  16186-2 0  9992
2 39444  97.7149  71.7566 0048148 335.3946  24.4975 14.91039311561503
Epoch (UTC): 20 April 2024 10:57:04
Eccentricity: 0.0048148
inclination: 97.7149°
perigee height: 561 km
apogee height: 628 km
right ascension of ascending node: 71.7566°
argument of perigee: 335.3946°
revolutions per day: 14.91039311
mean anomaly at epoch: 24.4975°
orbit number at epoch: 56150

The dashed part of the orbit path shows where the satellite is in the earth's shadow,  

DLR